Starlink 4049

operational
NORAD ID: 52840 Int'l Des: 2022-062 Owner: SPXS Country: US Constellation: starlink
LEOCIRCULAR

About Starlink 4049

Description loading...

Live Position

Loading 3D Globe...

Upcoming Passes

Altitude History

Altitude vs Time

uPlot chart will show altitude changes over time

Two-Line Element Set

1 52840U 22062L 25349.89388320 .00007843 00000-0 51033-3 0 9992
2 52840 53.2177 50.4109 0001461 84.6295 275.4864 15.08840021193133
Epoch: Dec 15, 2025 • Age: 23 hours

Current Status

Altitude 543.7 km
Velocity 7.60 km/s
Sub-Earth Point 45.62°N, 147.58°E
Launch Date Jun 17, 2022
Age 3.4 years
Type internet

Technical Details

Classification Payload
Mass 297.00 kg
Dry Mass 275.00 kg
Total Mass 297.00 kg
Length 0.20 m
Diameter 2.80 m
Span 9.00 m
Shape Box + pan
Manufacturer SPXS
Bus Type Starlink
Phase Status In Orbit
Owner/State SPXS/US

Large Constellations

Loading constellations...